Location: Luxembourg
(49.6117°N, 6.1300°E)
Time: 21:01:39
(UTC+01:00)

SPROUT - Visible Passes

Search period start: 18 March 2019 00:00
Search period end: 28 March 2019 00:00
Orbit: 599 x 614 km, 97.9° (Epoch: 18 March)

Date Brightness Start Highest point End Pass type
(mag) Time Alt. Az. Time Alt. Az. Time Alt. Az.
22 Mar ? 00:18:50 10° NNW 00:18:50 10° NNW 00:18:50 10° NNW visible
23 Mar ? 23:08:16 10° NNE 23:08:16 10° NNE 23:08:19 10° NNE visible
24 Mar ? 23:21:26 12° NNE 23:21:26 12° NNE 23:21:46 10° N visible
25 Mar ? 23:34:35 13° N 23:34:35 13° N 23:35:07 10° N visible
26 Mar ? 23:47:44 14° N 23:47:44 14° N 23:48:24 10° N visible
